Temperature
22 22 21 20 20 20 22 24 24 24 23 23 23 23 22 21 20 19 19 19 19 19 19 19 19 19 19 19 19 19 19 19 19 19 19 19 19 19 19 19 19 19 18 19 19 18 19 18 18
22 21 21 21 20 21 23 24 24 24 24 23 23 22 22 21 20 19 19 19 19 19 19 19 19 19 19 19 19 19 19 19 19 19 19 19 19 19 19 19 19 19 18 18 18 18 18 18 18
22 21 21 20 21 22 23 24 24 25 24 24 23 22 22 21 20 20 20 20 20 19 19 19 19 19 19 19 19 19 19 19 19 19 19 19 19 19 19 19 19 19 19 18 18 18 18 18 18
22 21 21 21 23 24 25 25 25 25 24 24 23 22 21 21 20 20 20 20 20 20 19 19 19 19 19 19 19 19 19 19 19 19 19 19 19 19 19 19 19 19 19 19 18 18 18 18 18
23 22 21 22 24 26 26 26 25 25 24 23 22 21 21 21 21 20 20 20 20 20 20 19 19 19 19 19 19 19 19 19 19 19 19 19 19 19 19 18 18 19 19 19 18 18 18 18 18
23 22 22 23 25 26 26 26 25 24 23 23 22 21 20 21 20 20 20 20 20 20 20 19 19 19 19 19 19 19 19 19 19 19 19 19 19 19 18 18 19 19 19 18 18 18 18 18 18
23 22 23 24 25 26 26 26 25 24 24 23 22 21 20 20 21 20 20 20 20 20 20 20 19 19 19 19 19 19 19 19 19 19 19 19 19 19 19 19 19 19 19 18 18 18 18 18 18
24 22 23 24 25 26 26 26 25 25 24 23 23 21 21 21 21 21 20 20 20 20 20 20 19 19 19 19 19 19 19 19 19 19 19 19 19 18 18 19 19 19 19 18 18 18 18 18 18
25 22 23 25 26 26 26 26 25 25 24 23 23 22 22 21 21 21 20 20 20 20 19 20 19 19 19 19 19 19 19 19 19 18 18 18 18 18 18 18 19 19 18 18 18 18 18 18 18
25 23 25 27 27 26 27 26 26 25 24 23 22 22 21 21 21 21 20 20 20 20 19 19 19 19 19 19 19 19 19 19 19 19 18 18 18 18 18 18 18 18 18 18 18 18 18 18 18
25 25 26 28 28 28 27 27 26 24 23 23 22 22 21 21 21 21 20 20 20 20 20 20 19 19 19 19 19 19 19 19 19 18 18 18 18 18 18 18 18 18 18 18 18 18 18 18 18
26 27 28 28 28 28 27 27 26 25 24 23 23 22 22 21 21 21 21 21 20 20 20 20 19 19 19 19 19 19 19 19 19 18 18 18 18 18 18 18 18 18 18 18 18 18 18 18 18
27 28 29 29 29 28 27 26 26 25 24 23 23 23 22 22 21 21 21 21 20 20 20 20 19 19 19 19 19 19 19 19 19 18 18 18 18 18 18 18 18 18 18 18 18 18 18 18 18
28 28 28 28 28 28 27 26 25 24 24 23 23 23 22 22 22 21 21 21 20 20 20 20 20 19 19 19 19 19 19 19 19 18 18 18 18 18 18 18 18 18 18 18 18 18 18 18 18
29 27 27 27 27 27 26 25 25 24 24 23 23 23 22 22 22 22 21 21 21 20 20 20 20 20 19 19 19 19 19 19 19 19 18 18 18 18 18 18 18 18 18 18 18 18 18 18 18
27 25 25 27 27 27 26 24 25 25 24 24 23 23 23 22 22 22 22 21 21 21 20 20 20 20 19 19 19 19 19 19 19 19 19 18 18 18 18 18 18 18 18 18 18 18 18 18 18
25 24 25 26 27 27 25 24 25 25 24 24 24 23 23 22 22 22 22 22 21 21 20 20 20 20 20 19 19 19 19 19 19 19 19 18 18 18 18 18 18 18 18 18 18 18 18 18 18
25 25 26 26 27 27 25 24 25 25 25 24 24 23 23 22 22 22 22 21 21 21 21 20 20 20 20 19 19 19 19 19 19 19 19 19 19 18 18 18 18 18 18 18 18 18 18 18 18
27 26 26 27 28 26 25 24 24 25 25 24 24 23 23 23 23 22 22 21 21 21 20 20 20 20 20 20 19 19 19 19 19 19 19 19 18 18 18 18 18 18 18 18 18 18 18 18 18
27 26 26 27 28 27 25 24 24 25 24 24 24 23 23 23 22 22 22 22 21 21 21 20 20 20 20 20 20 19 19 19 19 19 19 18 19 19 19 19 18 18 18 18 18 18 18 18 18
27 27 27 27 27 26 25 24 24 25 25 25 25 24 24 23 23 22 22 22 22 21 21 21 20 20 20 20 20 19 19 19 19 19 19 19 19 19 19 19 19 18 18 18 18 18 18 18 18
27 28 29 28 26 24 25 23 23 23 24 24 25 24 24 23 23 23 22 22 22 22 21 21 21 20 20 20 20 20 19 19 19 19 19 19 18 18 18 18 18 18 18 18 18 18 18 18 18
28 29 29 28 26 24 24 23 23 23 23 23 24 24 24 24 23 23 23 23 22 22 22 21 21 21 20 20 20 20 20 20 19 19 19 19 18 18 18 18 18 18 18 18 18 18 18 18 18
29 28 27 25 23 23 24 23 23 22 23 24 24 24 24 24 23 23 23 23 23 22 22 21 21 21 20 20 20 20 20 19 19 19 19 19 19 18 18 18 18 18 18 18 18 18 18 18 18
27 24 23 24 22 22 23 23 23 24 25 25 25 25 24 24 24 23 23 23 23 22 22 22 21 21 21 20 20 20 20 20 19 19 19 19 19 18 18 18 18 18 18 18 18 18 18 18 17
27 24 23 24 23 23 23 23 24 25 26 26 26 25 25 24 24 24 24 23 23 23 22 22 22 21 21 21 20 20 20 19 19 19 19 19 19 18 18 18 18 18 18 18 18 18 18 17 17
27 25 23 22 22 22 22 23 24 25 25 25 25 25 24 24 24 24 24 23 23 23 22 22 22 21 21 21 20 20 20 20 19 19 19 19 19 18 18 18 18 18 18 18 18 18 17 17 17
27 25 22 22 22 22 23 23 22 24 24 24 23 24 24 24 24 24 24 24 23 23 22 22 22 22 21 21 20 20 20 20 19 19 19 19 19 18 18 18 18 18 18 18 17 17 17 17 17
27 26 23 20 21 22 22 22 24 23 23 23 23 24 24 24 24 24 24 24 23 23 22 22 22 21 21 21 20 20 20 20 19 19 19 19 19 18 18 18 18 18 18 17 17 17 17 17 17
27 25 23 23 22 21 21 22 24 24 24 24 24 24 24 24 24 24 24 23 23 22 22 22 22 21 21 21 20 20 20 19 19 19 19 19 18 18 18 18 18 18 17 17 17 17 17 17 16
Wind_Speed
11 8 4 1 2 3 3 3 5 7 6 7 10 10 10 8 6 7 4 8 9 7 8 10 11 12 12 13 13 14 14 14 15 15 16 17 17 16 16 17 17 18 18 17 17 17 16 16 15
7 6 2 1 3 4 2 4 8 9 10 11 11 11 10 8 7 8 5 8 9 8 8 10 12 12 13 14 14 14 14 15 15 15 16 16 16 16 16 16 17 17 17 17 16 16 16 15 14
5 3 1 2 1 4 4 7 11 10 10 8 6 7 6 6 7 6 8 11 9 7 8 11 13 13 14 14 15 15 15 15 15 15 16 16 16 16 16 16 16 16 16 16 15 15 15 14 13
2 1 2 3 2 3 7 9 12 13 10 9 9 7 5 5 5 9 13 12 10 7 9 12 13 13 13 14 15 15 15 16 15 15 15 16 16 15 15 15 15 15 15 14 14 14 13 13 12
1 2 3 2 2 4 8 11 13 11 6 9 11 8 5 4 11 14 13 12 11 7 8 11 13 13 13 14 14 14 15 15 15 15 15 15 15 14 14 13 13 13 13 13 13 12 12 11 11
1 2 3 3 5 7 8 12 15 15 14 12 11 8 4 6 11 12 12 10 10 8 7 10 13 13 12 13 14 14 14 14 14 14 14 14 13 13 12 12 11 11 12 12 12 12 11 10 10
2 2 2 3 7 8 8 9 11 12 12 8 9 7 4 5 8 11 11 10 9 9 7 7 9 11 11 12 12 12 13 13 13 13 13 12 12 12 11 10 10 11 11 12 11 11 10 9 9
3 2 1 2 7 6 7 7 11 13 10 11 8 7 6 7 9 11 10 9 9 7 7 6 7 8 8 9 11 11 12 12 11 11 12 12 11 11 10 9 10 11 11 11 10 10 9 8 7
3 2 2 4 6 6 9 12 9 9 11 7 5 8 11 13 12 12 10 8 8 8 5 6 6 6 7 8 9 10 10 10 10 10 11 10 8 8 8 9 9 10 10 10 9 9 9 7 6
5 4 5 5 7 8 11 14 11 9 11 10 11 12 14 14 13 12 12 10 8 8 6 5 6 6 6 7 7 7 7 7 7 7 7 6 6 6 7 8 8 9 9 8 8 8 7 5 4
5 5 4 5 8 9 11 11 8 12 9 13 16 16 14 14 12 12 11 11 10 9 7 5 5 5 5 5 6 5 5 5 5 6 6 6 5 5 5 4 5 6 6 4 4 4 4 4 4
3 3 5 5 7 9 9 9 9 9 10 15 16 15 13 13 12 11 11 10 9 8 7 6 5 5 5 5 5 4 4 4 4 5 7 6 3 3 3 3 3 4 4 3 3 3 3 4 5
3 2 4 5 7 8 11 11 11 11 15 15 16 14 13 12 11 10 10 10 9 8 7 6 6 5 5 4 3 4 3 4 5 5 6 7 4 3 3 3 3 4 4 4 3 3 3 3 3
3 2 3 5 7 9 12 10 8 13 17 16 15 13 12 13 12 10 10 10 10 8 7 6 6 6 5 4 3 3 4 5 5 5 6 7 6 5 4 3 3 3 4 5 4 3 3 2 2
3 4 4 3 5 6 10 6 9 16 17 16 15 13 13 12 12 12 12 11 10 9 7 7 7 6 5 4 4 4 5 5 4 4 5 7 7 6 4 3 3 4 5 4 3 2 2 2 2
4 4 1 3 3 5 8 6 8 13 16 15 14 14 12 11 12 12 12 11 10 9 8 7 7 6 5 4 4 3 4 4 4 4 4 6 7 7 4 3 3 4 4 3 2 2 2 1 2
3 1 3 4 4 5 5 5 9 11 14 14 14 13 13 12 10 11 12 11 10 10 9 7 6 6 5 5 4 3 4 3 3 4 4 5 6 6 5 3 3 4 3 2 2 2 3 2 2
4 3 4 5 4 4 4 5 9 11 13 13 13 13 13 14 13 12 12 11 10 9 9 7 6 6 5 4 3 2 3 2 2 2 4 5 4 5 5 3 3 4 3 2 1 2 2 2 2
7 5 5 6 4 4 6 7 10 12 12 12 12 13 13 13 11 12 13 12 9 8 8 8 7 6 4 3 3 3 2 1 1 1 3 5 5 5 5 3 3 3 3 3 3 2 2 1 2
6 4 5 4 4 4 5 7 9 11 14 15 16 15 15 12 11 12 12 12 11 10 9 8 8 7 6 4 4 3 3 2 2 1 2 4 4 5 5 4 3 3 3 3 2 2 1 1 2
7 8 8 6 1 3 5 1 5 6 7 10 14 15 16 18 18 16 14 13 12 12 11 10 9 7 6 5 4 3 2 2 1 1 1 1 4 4 4 4 4 3 3 3 2 2 3 2 1
7 10 8 7 4 3 5 4 7 8 7 9 11 14 16 17 16 16 15 14 14 13 11 9 9 8 6 6 6 6 4 4 3 3 2 2 3 4 4 4 4 4 3 3 3 2 2 3 1
8 7 6 6 5 1 0 3 5 4 7 10 12 15 16 17 18 18 18 17 15 13 12 10 9 8 7 7 7 7 5 3 3 3 3 2 1 2 4 4 4 3 3 3 3 2 2 2 2
3 1 3 3 4 0 4 4 5 6 12 10 11 13 14 14 15 15 15 14 13 12 11 10 10 8 7 7 7 7 7 5 5 4 4 3 1 1 2 3 3 3 3 3 3 3 3 2 2
2 4 3 4 4 4 3 3 7 9 11 12 12 13 13 13 14 13 14 14 14 14 13 12 11 9 8 8 7 7 7 7 6 5 5 4 2 2 2 3 3 3 3 3 3 2 2 2 2
4 8 7 5 5 4 2 4 7 7 8 9 10 12 11 11 12 14 14 15 15 15 14 13 12 10 9 8 8 6 6 5 4 5 5 4 4 3 3 3 3 3 3 3 3 2 2 1 2
4 3 8 7 3 1 3 4 6 2 2 6 8 9 10 11 11 13 12 13 12 13 13 13 13 11 10 9 8 7 6 6 5 5 4 4 3 3 3 3 3 3 3 3 3 2 2 2 1
7 7 6 5 4 2 3 4 4 3 3 5 8 10 10 10 10 11 13 13 12 11 11 11 12 12 10 9 9 8 6 6 6 5 5 4 4 3 3 3 3 3 3 2 3 2 1 1 1
0 3 5 4 6 6 4 6 6 9 9 9 9 10 11 11 11 12 12 13 12 10 10 11 11 9 9 9 8 7 7 6 6 5 5 5 4 4 4 4 4 4 3 2 2 2 2 2 2
5 5 7 5 4 6 5 6 5 5 6 8 8 8 8 9 10 10 10 10 10 10 10 10 11 10 10 9 8 7 6 6 6 5 5 5 4 4 5 5 4 4 4 3 3 3 2 2 2
Wind_Direction
163 164 167 173 49 52 86 109 116 93 75 68 77 83 82 70 95 121 145 130 127 130 128 115 103 100 103 105 105 105 105 105 107 110 114 117 120 119 120 121 125 127 127 128 129 129 129 128 127
163 170 174 58 71 85 91 116 104 106 124 111 83 81 77 73 90 113 126 132 129 129 127 118 109 104 105 108 108 108 106 106 109 113 117 118 122 123 122 123 126 128 128 129 130 130 129 127 127
173 180 125 64 90 136 130 129 122 118 120 106 90 68 72 100 110 126 143 138 127 121 125 123 116 111 110 112 112 112 111 110 112 115 118 119 122 124 124 125 127 129 130 132 132 130 130 131 131
152 107 52 63 113 142 132 131 124 113 94 88 98 76 66 98 118 133 138 134 128 126 129 128 122 119 117 116 115 114 114 114 114 117 118 120 122 124 125 126 127 130 133 135 133 133 135 136 136
134 105 58 57 96 111 121 127 122 110 100 97 97 95 79 80 117 131 136 134 134 135 135 132 128 125 124 123 121 119 118 118 117 116 116 118 120 123 124 125 129 135 139 139 138 137 138 138 137
86 77 73 87 95 100 106 113 110 106 111 108 105 104 92 118 124 137 139 137 138 137 135 134 133 131 128 128 127 123 122 121 119 119 119 119 120 122 124 127 132 138 144 145 144 143 143 141 140
123 98 139 132 113 115 122 119 116 122 126 124 125 104 119 137 138 138 139 139 137 134 131 131 135 136 134 132 132 130 128 126 126 124 124 124 125 126 126 129 135 140 144 147 150 150 150 149 148
159 106 76 121 116 119 130 115 126 126 120 130 125 124 152 164 142 129 128 124 127 127 132 136 136 136 137 138 141 139 136 134 133 130 129 130 130 133 133 132 133 140 146 149 156 159 158 158 156
137 92 164 151 131 135 128 114 116 106 116 128 111 130 147 144 132 121 119 118 124 126 132 138 141 145 145 144 145 146 144 144 143 141 138 135 133 137 141 142 139 143 152 158 163 169 171 173 170
146 153 192 166 147 147 135 128 128 115 111 109 112 123 134 136 134 130 133 137 138 141 146 144 147 151 154 153 145 151 152 151 151 149 147 146 148 151 151 154 155 156 160 166 172 179 179 182 176
157 177 165 142 149 143 132 128 118 125 129 142 142 145 145 142 141 141 143 146 148 150 147 147 148 152 149 143 148 157 157 162 163 167 166 158 156 159 159 163 167 167 164 168 175 193 194 186 184
135 169 157 140 133 132 133 128 120 129 148 149 146 148 148 145 146 147 148 146 144 143 149 149 147 146 146 146 152 159 156 162 172 176 171 159 156 161 159 162 173 176 178 174 188 196 189 185 187
125 151 141 129 117 120 124 128 123 130 140 145 144 145 148 148 148 149 145 142 140 142 146 146 143 143 149 140 151 151 158 167 174 170 175 169 164 167 173 179 183 191 185 180 180 188 179 180 184
160 98 101 106 108 119 119 125 116 143 147 149 150 150 151 150 149 144 144 141 146 149 148 146 142 143 141 140 146 154 170 170 165 175 179 172 171 172 175 176 183 196 197 194 186 182 180 182 169
103 73 40 100 113 130 114 111 143 156 153 154 157 155 151 152 151 153 155 151 150 152 151 151 147 138 139 143 151 157 166 162 161 172 175 174 171 170 172 172 180 192 188 179 167 164 151 158 157
52 62 29 260 141 151 118 156 172 161 158 160 163 160 155 156 157 159 158 155 154 152 154 162 151 144 146 144 138 143 154 156 162 167 168 179 176 167 166 163 180 183 165 159 151 141 138 149 150
24 105 238 261 193 156 123 159 180 170 162 166 165 165 162 162 162 164 162 160 160 158 157 161 154 154 152 145 139 134 138 144 161 157 164 175 177 171 165 165 173 162 143 142 166 148 158 162 163
230 212 229 230 217 153 145 170 173 176 170 171 171 169 169 171 174 170 165 165 162 161 160 160 156 160 150 137 124 111 104 116 143 151 162 165 167 162 152 154 150 140 131 136 152 158 160 169 181
205 217 238 245 210 158 177 175 180 185 181 177 176 174 175 178 178 170 166 165 162 161 160 161 159 165 152 139 140 139 149 151 135 157 155 153 153 147 141 138 140 139 144 161 160 148 142 150 131
211 215 245 255 219 162 178 196 194 189 191 187 182 180 179 174 169 172 171 169 169 173 169 167 169 170 167 166 165 161 158 167 160 142 135 146 141 144 148 141 145 142 138 136 143 133 138 173 142
229 209 214 210 188 111 125 216 213 212 203 197 189 183 177 175 174 177 179 179 175 178 178 177 176 170 168 160 139 127 98 80 78 113 138 147 145 147 148 145 142 140 141 156 164 156 156 176 208
233 223 204 192 153 209 157 199 236 204 205 202 195 187 183 181 179 180 181 181 182 183 180 175 173 170 168 158 150 150 155 166 190 178 169 171 153 147 149 145 146 148 150 160 179 166 162 150 169
230 222 192 195 169 147 101 153 266 182 209 211 200 193 190 185 184 184 185 185 185 182 179 175 171 173 171 164 163 162 165 175 171 157 154 169 172 153 156 151 147 151 159 167 162 148 145 150 161
214 25 20 54 81 267 239 168 250 207 211 206 197 193 188 186 185 186 186 180 181 179 177 174 172 180 178 171 167 168 167 164 156 164 170 180 181 174 166 152 152 163 165 169 171 167 155 163 159
63 88 25 358 12 251 248 168 237 223 204 195 190 193 190 188 185 184 183 181 181 179 178 176 176 181 182 177 177 176 173 169 173 178 179 179 180 185 196 172 168 174 178 174 169 165 170 166 160
220 150 166 198 214 256 297 218 249 243 203 192 183 182 179 180 184 186 186 185 183 181 179 177 180 182 182 181 183 177 170 171 176 177 178 184 189 190 184 176 176 178 175 169 164 162 180 157 177
190 186 173 149 166 175 280 281 310 345 115 154 159 165 176 181 180 181 180 179 178 179 181 180 179 180 183 183 179 177 174 172 174 177 174 178 183 185 180 176 175 178 171 169 157 164 187 160 173
169 163 98 115 149 218 283 271 241 233 214 159 161 172 180 180 177 179 179 178 180 181 183 180 181 183 183 182 183 184 185 181 178 173 177 181 184 179 164 165 172 168 158 155 146 154 176 157 193
133 113 115 128 152 157 211 259 234 206 191 173 172 175 178 177 179 179 177 178 175 171 174 179 181 179 178 181 183 180 184 185 176 176 184 184 179 170 169 168 154 153 153 150 151 169 178 178 194
180 174 148 157 209 166 171 254 261 197 167 155 157 161 170 179 176 170 165 164 164 168 175 183 184 182 183 181 177 179 178 177 177 181 183 176 171 168 168 160 152 162 160 157 165 187 201 186 191
Height
1502 1502 1503 1504 1506 1512 1513 1506 1500 1500 1501 1502 1500 1501 1504 1508 1513 1521 1519 1517 1517 1517 1516 1515 1514 1512 1511 1511 1511 1511 1512 1512 1512 1512 1513 1514 1516 1518 1520 1522 1524 1526 1527 1529 1531 1533 1534 1536 1538
1502 1502 1504 1505 1511 1522 1516 1504 1502 1500 1502 1502 1503 1505 1506 1511 1513 1516 1517 1518 1518 1518 1517 1516 1515 1513 1512 1512 1512 1512 1513 1513 1513 1514 1515 1516 1518 1520 1522 1524 1526 1527 1529 1531 1533 1534 1536 1537 1539
1501 1502 1505 1506 1512 1517 1512 1502 1501 1501 1502 1501 1505 1507 1510 1514 1515 1516 1517 1519 1519 1519 1519 1518 1517 1516 1514 1514 1514 1514 1515 1515 1515 1516 1517 1518 1520 1522 1524 1526 1528 1529 1531 1533 1534 1536 1537 1539 1541
1502 1504 1506 1510 1511 1503 1500 1500 1500 1502 1504 1504 1506 1510 1513 1516 1516 1517 1518 1520 1520 1520 1520 1520 1520 1519 1518 1517 1517 1517 1518 1518 1518 1518 1519 1520 1522 1524 1526 1528 1529 1531 1532 1534 1536 1537 1539 1540 1542
1503 1504 1509 1514 1507 1499 1496 1498 1499 1501 1505 1507 1507 1513 1516 1518 1517 1518 1520 1521 1521 1521 1522 1522 1522 1521 1521 1521 1521 1521 1521 1521 1521 1522 1522 1523 1525 1527 1528 1529 1531 1532 1533 1535 1537 1538 1540 1542 1543
1504 1505 1515 1517 1507 1499 1498 1499 1501 1504 1508 1510 1511 1514 1519 1520 1519 1520 1521 1522 1523 1523 1524 1524 1524 1524 1524 1524 1524 1524 1524 1525 1525 1525 1526 1527 1528 1529 1530 1531 1531 1532 1533 1535 1538 1540 1542 1543 1544
1505 1508 1513 1510 1507 1504 1501 1500 1501 1504 1508 1510 1511 1515 1520 1521 1521 1522 1523 1524 1525 1525 1526 1526 1526 1526 1526 1526 1526 1527 1527 1527 1528 1528 1529 1530 1531 1532 1532 1532 1531 1532 1534 1536 1539 1541 1543 1544 1546
1503 1507 1511 1509 1508 1506 1501 1501 1503 1505 1508 1512 1512 1515 1519 1521 1522 1523 1525 1526 1526 1527 1528 1528 1528 1528 1529 1529 1529 1529 1530 1530 1531 1531 1532 1533 1533 1534 1534 1534 1533 1533 1535 1538 1541 1543 1544 1546 1547
1502 1510 1514 1507 1505 1504 1500 1502 1506 1507 1508 1512 1512 1514 1517 1521 1522 1524 1526 1527 1528 1529 1529 1529 1530 1530 1530 1531 1531 1532 1532 1532 1533 1533 1534 1535 1536 1536 1536 1537 1537 1537 1539 1541 1542 1544 1545 1547 1548
1500 1510 1506 1497 1497 1498 1499 1501 1504 1509 1511 1513 1515 1517 1519 1521 1523 1524 1525 1527 1528 1529 1530 1531 1531 1531 1532 1532 1533 1533 1534 1534 1535 1536 1536 1537 1537 1538 1538 1539 1540 1540 1541 1543 1544 1545 1547 1548 1548
1496 1501 1495 1494 1495 1496 1499 1501 1504 1508 1512 1513 1514 1517 1520 1522 1524 1525 1526 1527 1528 1530 1531 1532 1533 1533 1533 1534 1534 1535 1535 1536 1536 1537 1537 1538 1539 1539 1540 1540 1541 1542 1543 1544 1545 1546 1547 1548 1549
1495 1495 1494 1494 1495 1497 1499 1502 1505 1507 1511 1513 1514 1517 1520 1522 1524 1526 1527 1528 1529 1530 1532 1533 1533 1534 1534 1535 1535 1536 1536 1537 1537 1538 1538 1539 1540 1540 1541 1541 1542 1543 1544 1545 1546 1547 1548 1548 1549
1494 1495 1493 1494 1495 1497 1499 1502 1505 1508 1511 1514 1516 1518 1520 1522 1525 1527 1528 1529 1530 1531 1532 1533 1534 1535 1535 1536 1536 1537 1537 1537 1538 1538 1539 1539 1540 1541 1541 1542 1543 1544 1545 1546 1546 1547 1548 1548 1549
1494 1494 1494 1494 1496 1498 1501 1505 1506 1510 1511 1514 1516 1518 1520 1522 1525 1526 1528 1529 1531 1532 1533 1534 1535 1536 1536 1537 1537 1537 1538 1538 1538 1538 1539 1539 1540 1541 1542 1543 1544 1544 1545 1546 1547 1547 1548 1548 1549
1494 1496 1497 1497 1497 1501 1503 1509 1508 1509 1511 1514 1516 1518 1520 1523 1524 1526 1527 1529 1530 1532 1533 1534 1535 1536 1537 1537 1538 1538 1538 1538 1538 1538 1539 1539 1540 1541 1542 1543 1544 1544 1545 1546 1547 1547 1548 1548 1549
1496 1503 1510 1501 1498 1500 1506 1518 1510 1510 1512 1514 1516 1518 1520 1522 1524 1526 1527 1529 1530 1532 1533 1534 1536 1536 1537 1537 1538 1538 1539 1539 1538 1538 1538 1539 1540 1541 1542 1542 1543 1544 1545 1546 1547 1547 1547 1548 1548
1506 1515 1513 1504 1497 1499 1505 1514 1509 1510 1511 1513 1515 1517 1519 1521 1524 1526 1527 1529 1530 1531 1533 1534 1535 1536 1537 1538 1538 1539 1539 1539 1539 1539 1538 1538 1539 1540 1541 1542 1543 1544 1545 1545 1546 1546 1547 1547 1547
1514 1513 1510 1506 1497 1499 1505 1508 1507 1509 1510 1511 1513 1515 1517 1519 1522 1524 1526 1528 1530 1531 1533 1534 1535 1536 1537 1538 1538 1539 1539 1539 1539 1539 1539 1539 1539 1540 1541 1542 1543 1543 1544 1545 1545 1545 1546 1546 1547
1499 1504 1507 1501 1493 1499 1504 1506 1506 1507 1509 1510 1512 1514 1515 1517 1520 1523 1525 1527 1529 1531 1532 1533 1534 1535 1536 1537 1537 1538 1538 1539 1539 1539 1539 1539 1539 1540 1541 1541 1542 1543 1543 1544 1545 1545 1545 1546 1546
1495 1503 1504 1498 1492 1498 1504 1505 1502 1504 1505 1506 1507 1510 1512 1515 1518 1521 1523 1525 1527 1529 1531 1532 1533 1534 1535 1536 1537 1538 1538 1539 1539 1539 1540 1540 1540 1540 1540 1541 1541 1542 1543 1543 1544 1544 1544 1545 1545
1495 1498 1499 1499 1495 1496 1505 1512 1508 1503 1503 1504 1506 1507 1509 1511 1514 1518 1520 1522 1524 1526 1528 1530 1532 1533 1534 1535 1536 1537 1538 1538 1538 1539 1539 1539 1540 1540 1540 1540 1541 1541 1542 1542 1543 1543 1543 1543 1544
1497 1484 1486 1491 1503 1513 1509 1529 1512 1504 1504 1503 1504 1505 1507 1509 1511 1514 1517 1519 1521 1524 1526 1528 1530 1532 1533 1534 1535 1536 1536 1536 1537 1538 1539 1539 1539 1539 1540 1540 1540 1541 1541 1541 1541 1542 1542 1542 1542
1483 1477 1482 1487 1500 1512 1511 1523 1516 1505 1506 1502 1501 1502 1504 1505 1508 1510 1512 1515 1519 1522 1524 1526 1529 1530 1532 1533 1534 1535 1535 1536 1537 1537 1538 1539 1539 1539 1539 1540 1540 1540 1540 1540 1540 1541 1541 1541 1541
1474 1480 1486 1494 1507 1525 1515 1521 1519 1506 1499 1496 1497 1499 1501 1503 1505 1508 1511 1513 1516 1520 1522 1524 1526 1528 1530 1531 1532 1533 1534 1535 1536 1536 1537 1538 1538 1538 1539 1539 1539 1539 1539 1539 1540 1540 1540 1540 1540
1477 1498 1521 1525 1534 1531 1511 1515 1511 1490 1486 1487 1490 1494 1497 1500 1502 1505 1508 1511 1514 1516 1519 1521 1524 1526 1528 1529 1531 1532 1533 1534 1534 1535 1536 1536 1536 1537 1537 1538 1538 1538 1538 1538 1538 1538 1539 1539 1539
1480 1494 1521 1534 1537 1528 1513 1514 1498 1480 1479 1481 1484 1488 1493 1496 1499 1502 1504 1507 1510 1512 1515 1518 1521 1523 1525 1527 1528 1530 1531 1532 1533 1534 1534 1535 1535 1535 1536 1536 1537 1537 1537 1537 1537 1537 1537 1537 1537
1480 1489 1492 1511 1519 1527 1521 1507 1492 1479 1479 1481 1484 1487 1491 1493 1496 1498 1502 1505 1508 1511 1513 1515 1518 1520 1523 1525 1526 1528 1529 1530 1531 1532 1533 1533 1534 1534 1534 1535 1535 1535 1535 1535 1535 1535 1535 1535 1535
1469 1477 1496 1511 1527 1535 1524 1514 1507 1489 1484 1482 1483 1486 1488 1491 1494 1496 1498 1502 1505 1509 1511 1514 1516 1518 1520 1522 1524 1525 1527 1528 1529 1530 1530 1531 1532 1532 1532 1533 1533 1533 1533 1534 1534 1534 1534 1534 1534
1473 1479 1490 1506 1511 1527 1533 1519 1485 1481 1478 1480 1481 1483 1485 1488 1491 1493 1495 1499 1503 1507 1509 1512 1514 1516 1518 1520 1521 1523 1524 1525 1526 1527 1528 1529 1529 1530 1530 1530 1531 1531 1531 1532 1532 1532 1532 1532 1532
1465 1473 1486 1503 1509 1513 1520 1511 1476 1475 1475 1476 1480 1482 1485 1487 1489 1491 1494 1498 1502 1504 1507 1509 1511 1513 1515 1517 1519 1520 1522 1523 1524 1525 1525 1526 1527 1527 1528 1528 1528 1529 1529 1530 1530 1531 1531 1531 1531